User: anonymous   Login
Location: Unspecified
(0.0000°N, 0.0000°E)
Time: 16:42:53
(UTC+00:00)
Language:

USA 119 - Orbit

View from above orbital plane
View from above orbital plane
View from above satellite
View from above satellite

Ground track
Ground track

The orbit data is extracted from the following two-line orbital elements,

1 23893U 96029A   16363.76627281 0.00000000  00000-0  00000-0 0    02
2 23893  63.3814 323.6851 3390586 264.1016  56.8598  5.52849705    00
Epoch (UTC): 28 December 2016 18:23:25
Eccentricity: 0.3390586
inclination: 63.3814°
perigee height: 2551 km
apogee height: 11713 km
right ascension of ascending node: 323.6851°
argument of perigee: 264.1016°
revolutions per day: 5.52849705
mean anomaly at epoch: 56.8598°
orbit number at epoch: 0

The dashed part of the orbit path shows where the satellite is in the earth's shadow,  

DLR